Location: Newark
(11.2914°S, 14.4718°E)
Time: 20:43:03
(UTC+00:00)

Vanguard 2 - Pass Details

Date: 20 September 2019
Orbit: 554 x 2937 km, 32.9° (Epoch: 21 October)

Event Time Altitude Azimuth Distance (km) Brightness Sun altitude
Rises 18:12:56 0° 231° (SW) 5,051 12.6 -19.2°
Reaches altitude 10° 18:16:15 10° 222° (SW) 4,370 12.0 -20.0°
Maximum altitude 18:28:04 38° 157° (SSE) 3,450 10.6 -22.9°
Enters shadow 18:36:01 27° 114° (ESE) 4,357 10.8 -24.8°
